Location: Yellowknife
(62.4500°N, 114.3500°W)
Time: 18:13:31
(UTC-07:00)

N. Korean satellite - Visible Passes

Search period start: 13 December 2018 00:00
Search period end: 23 December 2018 00:00
Orbit: 456 x 511 km, 97.2° (Epoch: 13 December)

Date Brightness Start Highest point End Pass type
(mag) Time Alt. Az. Time Alt. Az. Time Alt. Az.
13 Dec 9.9 05:44:36 10° NE 05:46:20 13° E 05:48:03 10° ESE visible
13 Dec 6.8 07:16:53 10° NNE 07:20:26 72° ESE 07:24:00 10° S visible
13 Dec 7.8 08:50:50 10° N 08:53:36 22° NW 08:56:23 10° WSW visible
13 Dec 7.4 16:30:24 10° ESE 16:33:19 26° ENE 16:36:16 10° N visible
13 Dec 7.3 18:03:14 10° S 18:06:37 52° WSW 18:10:02 10° NNW visible
14 Dec 7.8 06:52:22 10° NNE 06:55:47 44° E 06:59:14 10° S visible
14 Dec 7.3 08:26:01 10° N 08:29:11 31° WNW 08:32:23 10° WSW visible
14 Dec 6.4 17:38:32 10° SSE 17:41:59 87° WSW 17:45:29 10° NNW visible
14 Dec 9.7 19:14:00 10° WSW 19:16:01 15° W 19:18:04 10° NW visible
15 Dec 8.7 06:27:57 10° NNE 06:31:04 28° E 06:34:13 10° SSE visible
15 Dec 6.7 08:01:17 10° N 08:04:42 48° WNW 08:08:10 10° SW visible
15 Dec 6.5 17:14:02 10° SSE 17:17:24 57° ENE 17:20:51 10° N visible
15 Dec 9.0 18:48:24 10° SW 18:51:11 22° W 18:54:00 10° NW visible
16 Dec 9.5 06:03:42 10° NE 06:06:16 18° E 06:08:52 10° SE visible
16 Dec 6.4 07:36:36 10° NNE 07:40:10 77° WNW 07:43:47 10° SSW visible
16 Dec 7.0 16:49:43 10° SE 16:52:54 36° ENE 16:56:09 10° N visible
16 Dec 8.2 18:23:13 10° SSW 18:26:24 35° W 18:29:40 10° NNW visible
17 Dec 10.0 05:39:54 10° ENE 05:41:24 12° E 05:42:55 10° ESE visible
17 Dec 6.9 07:12:00 10° NNE 07:15:34 66° ESE 07:19:09 10° S visible
17 Dec 7.7 08:45:53 10° N 08:48:46 23° NW 08:51:41 10° WSW visible
17 Dec 7.5 16:25:36 10° ESE 16:28:27 25° ENE 16:31:21 10° N visible
17 Dec 7.1 17:58:18 10° S 18:01:43 58° WSW 18:05:11 10° NNW visible
17 Dec 10.1 19:35:24 10° W 19:35:59 10° W 19:36:33 10° WNW visible
18 Dec 8.0 06:47:28 10° NNE 06:50:53 40° E 06:54:20 10° S visible
18 Dec 7.2 08:21:04 10° N 08:24:20 34° WNW 08:27:38 10° SW visible
18 Dec 6.4 17:33:37 10° SSE 17:37:05 85° ENE 17:40:36 10° NNW visible
18 Dec 9.6 19:08:50 10° SW 19:11:04 16° W 19:13:19 10° NW visible
19 Dec 8.9 06:23:04 10° NE 06:26:08 26° E 06:29:15 10° SSE visible
19 Dec 6.7 07:56:20 10° N 07:59:50 52° WNW 08:03:23 10° SW visible
19 Dec 6.6 17:09:08 10° SE 17:12:31 52° ENE 17:15:57 10° N visible
19 Dec 8.9 18:43:20 10° SSW 18:46:14 24° W 18:49:11 10° NW visible
20 Dec 9.6 05:58:51 10° NE 06:01:20 17° E 06:03:49 10° SE visible
20 Dec 6.5 07:31:40 10° NNE 07:35:17 84° WNW 07:38:56 10° SSW visible
20 Dec 7.1 16:44:51 10° SE 16:48:00 34° ENE 16:51:14 10° N visible
20 Dec 8.0 18:18:11 10° SSW 18:21:27 38° W 18:24:47 10° NNW visible
21 Dec 10.1 05:35:12 10° ENE 05:36:26 11° E 05:37:42 10° ESE visible
21 Dec 7.1 07:07:04 10° NNE 07:10:39 60° ESE 07:14:16 10° S visible
21 Dec 7.6 08:40:53 10° N 08:43:54 25° WNW 08:46:56 10° WSW visible
21 Dec 7.6 16:20:45 10° ESE 16:23:34 23° NE 16:26:25 10° N visible
21 Dec 6.9 17:53:19 10° S 17:56:45 64° WSW 18:00:17 10° NNW visible
21 Dec 10.0 19:29:46 10° WSW 19:30:59 11° W 19:32:11 10° WNW visible
22 Dec 8.1 06:42:32 10° NNE 06:45:57 37° E 06:49:23 10° SSE visible
22 Dec 7.1 08:16:05 10° N 08:19:26 37° WNW 08:22:50 10° SW visible
22 Dec 6.4 17:28:40 10° SSE 17:32:08 78° ENE 17:35:41 10° NNW visible
22 Dec 9.5 19:03:39 10° SW 19:06:04 18° W 19:08:32 10° NW visible
